Location: Kitchener
(43.4500°N, 80.5000°W)
Time: 10:00:19
(UTC-05:00)

ATLAS 5 CENTAUR R/B - Visible Passes

Search period start: 02 March 2015 00:00
Search period end: 12 March 2015 01:00
Orbit: 705 x 957 km, 63.4° (Epoch: 28 February)

Date Brightness Start Highest point End Pass type
(mag) Time Alt. Az. Time Alt. Az. Time Alt. Az.
02 Mar 4.5 04:06:51 11° NNW 04:06:58 11° NNW 04:08:37 10° N visible
02 Mar 4.6 05:52:57 10° N 05:54:24 11° NNE 05:55:58 10° NNE visible
03 Mar 4.6 03:48:33 11° N 03:48:33 11° N 03:50:00 10° N visible
03 Mar 4.7 05:34:20 10° N 05:35:38 11° NNE 05:37:02 10° NNE visible
04 Mar 4.7 03:30:15 11° N 03:30:15 11° N 03:31:22 10° N visible
04 Mar 4.7 05:15:44 10° N 05:16:51 11° N 05:18:05 10° NNE visible
05 Mar 4.8 03:11:56 11° N 03:11:56 11° N 03:12:44 10° N visible
05 Mar 4.8 04:57:08 10° N 04:58:06 10° N 04:59:08 10° NNE visible
06 Mar 4.9 02:53:37 11° N 02:53:37 11° N 02:54:05 10° N visible
06 Mar 4.8 04:38:35 10° N 04:39:19 10° N 04:40:08 10° NNE visible
06 Mar 4.3 06:21:44 10° NNW 06:26:18 23° NNE 06:31:09 10° E visible
07 Mar 5.0 02:35:17 10° N 02:35:17 10° N 02:35:26 10° N visible
07 Mar 4.9 04:20:03 10° N 04:20:33 10° N 04:21:06 10° NNE visible
07 Mar 4.4 06:03:04 10° NNW 06:07:33 22° NNE 06:12:19 10° E visible
08 Mar 4.5 06:44:25 10° NNW 06:48:49 22° NNE 06:53:29 10° E visible
09 Mar 4.5 06:25:45 10° NNW 06:30:04 21° NNE 06:34:39 10° E visible
10 Mar 4.6 06:07:06 10° NNW 06:11:19 20° NNE 06:15:49 10° ENE visible
11 Mar 4.6 05:48:27 10° NNW 05:52:34 20° NNE 05:56:58 10° ENE visible
